Location: Eaton Estates
(41.3089°N, 82.0057°W)
Time: 09:35:00
(UTC+00:00)

USA 308 - Pass Details

Date: 25 October 2021
Orbit: 562 x 573 km, 54.0° (Epoch: 26 November)

Event Time Altitude Azimuth Distance (km) Brightness Sun altitude
Exits shadow 11:18:39 - 276° (W) 1,976 5.0 -6.8°
Reaches altitude 10° 11:19:01 10° 278° (W) 1,852 4.8 -6.8°
Maximum altitude 11:22:34 26° 336° (NNW) 1,138 4.1 -6.1°
Drops below altitude 10° 11:26:07 10° 33° (NNE) 1,857 5.8 -5.5°
Sets 11:28:40 0° 47° (NE) 2,756 6.9 -5.0°
